STARLINK-1890 (47173 NORAD) Tracking and Keplerian Element Data

This shows tracking and keplerian element data for the satellite.

Feedback or suggestion? Click here.




ElementValue
Catalog47173
NameSTARLINK-1890
Epoch Orbit182
Epoch Day20.91667824
Epoch Year2021
RAAN75.0052
Inclination53.0557
Eccentricity0.0001198
Argument of Perigee70.6443
Mean Anonmoly334.4032
Mean Motion15.39976559
Decay Rate-0.01083923
L11 47173U 20088BD 21020.91667824 -.01083923 00000-0 -29183-1 0 9990
L22 47173 53.0557 75.0052 0001198 70.6443 334.4032 15.39976559 1820

Live tracking and technical data element details for STARLINK-1890 (NORAD 47173). STARLINK-1890 can be tracked NOW for your location showing map with azimuth and elevation plus other details from your city location.

Track the satellite on the map from your city or location and see movement details for azimuth, elevation, latitude, longitude, range, height, and movement on the map or in text.







IsCatalogInMostPopularTable: catalog: 47173, numindb: 23
Update: records affected: 1



GetName: 47173 STARLINK-1890

Hit Count: updated at: Sat, 23 Jan 2021 18:02:34 GMT